COSMOS 1751

Satellite information

Favourite Embed

Satellite Type and Status

PAYLOADIN ORBIT

Key statistics

Satellite COSMOS 1751 at a glance.

Uptime

14390

Days in orbit

Revolutions

≈ 12.4

Per day

Orbit

LEO

Low Earth Orbit

Inclination

74.0

Latest

Satellite identification and parameters

Extended collection of information and parameters for COSMOS 1751.

Object identification

Identified? True

Debris? False

Object name: COSMOS 1751

International designator: 1986-042D

Object number (NORAD): 16761

Object ID (CCSDS): 16761

Country: COMMONWEALTH OF INDEPENDENT STATES (CIS)

Current information (Y/N): Y

RCS size: MEDIUM

Orbital parameters

Period: 115.673 minutes

Inclination: 74.0159 deg

SMA: 7864.081 km

Apoapsis: 1504.458 km

Periapsis: 1467.435 km

RAAN: 92.0254 deg

Eccentricy: 0.00235396

Argument of periapsis: 85.9925 deg

Mean anomaly: 330.5898 deg

Mean motion: 12.44889399 rev/day

Mean motion (dot): 0.00000005 rev/day2

B* drag term: 0.00014257143 1/REarth

Two-line elements (TLE)

Creation date: Oct. 28, 2025, 7:11 p.m.

Reference frame: TEME

Reference center: EARTH

Epoch: Oct. 28, 2025, 11:03 a.m. UTC

TLE line 0: 0 COSMOS 1751

TLE line 1: 1 16761U 86042D 25301.46061394 .00000005 00000-0 14257-3 0 9992

TLE line 2: 2 16761 74.0159 92.0254 0023540 85.9925 330.5898 12.44889399790327

Live tracking on map

Real-time ground track for satellite COSMOS 1751.

In-orbit conjunctions

There are no conjunctions computed for COSMOS 1751, at the moment. Check back to stay up to date, as we update our databases every day.

Go to all conjunctions

Associated space launch

Military communications satellites

COSMOS 1751 was lifted into orbit during the mission ‘Kosmos-3M | Strela-1M 305-312’, on board a Kosmos-3M space rocket.

The launch took place on June 6, 1986, 3:57 a.m. from 132/1 (132L).

For more information about the launch, click the button.

Launch to space Kosmos-3M | Strela-1M 305-312
Kosmos-3M | Strela-1M 305-312

Agency: N/A

Status: Launch Successful

Launch date: June 6, 1986, 3:57 a.m. UTC

Rocket: Kosmos-3M

Launch pad: 132/1 (132L)

Location: Plesetsk Cosmodrome, Russian Federation

...

Latest news about this satellite

There are no fresh news available about this satellite. Check back as we update our databases every day.


Newsletter sign-up

Weekly statistics, charts and insights to help you stay on top of the space industry.